Time,TemperatureF,DewpointF,PressureIn,WindDirection,WindDirectionDegrees,WindSpeedMPH,WindSpeedGustMPH,Humidity,HourlyPrecipIn,Conditions,Clouds,dailyrainin,SoftwareType,DateUTC
2013-05-22 00:00:00,50.7,24.7,30.03,WSW,245,0.0,6.0,36,0.00,CLR,,0.00,WeatherDisplay:10.37,2013-05-22 07:00:00,
2013-05-22 00:05:00,50.5,24.5,30.03,WSW,248,1.0,3.0,36,0.00,CLR,,0.00,WeatherDisplay:10.37,2013-05-22 07:05:00,
2013-05-22 00:10:00,50.5,24.5,30.03,WSW,254,0.0,6.0,36,0.00,CLR,,0.00,WeatherDisplay:10.37,2013-05-22 07:10:00,
2013-05-22 00:20:00,50.4,24.4,30.00,WSW,238,6.0,8.0,36,0.00,CLR,,0.00,WeatherDisplay:10.37,2013-05-22 07:20:00,
2013-05-22 00:30:00,50.4,24.4,30.00,SW,234,0.0,7.0,36,0.00,CLR,,0.00,WeatherDisplay:10.37,2013-05-22 07:30:00,
2013-05-22 00:40:00,50.4,23.7,30.00,WSW,237,3.0,6.0,35,0.00,CLR,,0.00,WeatherDisplay:10.37,2013-05-22 07:40:00,
2013-05-22 00:45:00,50.4,23.7,30.00,SW,233,3.0,12.0,35,0.00,CLR,,0.00,WeatherDisplay:10.37,2013-05-22 07:45:00,
2013-05-22 00:50:00,50.4,23.0,30.00,SW,235,3.0,7.0,34,0.00,CLR,,0.00,WeatherDisplay:10.37,2013-05-22 07:50:00,
2013-05-22 01:00:00,50.7,22.6,30.00,WSW,243,5.0,11.0,33,0.00,CLR,,0.00,WeatherDisplay:10.37,2013-05-22 08:00:00,
2013-05-22 01:05:00,50.9,22.8,30.00,WSW,247,3.0,9.0,33,0.00,CLR,,0.00,WeatherDisplay:10.37,2013-05-22 08:05:00,
2013-05-22 01:10:00,50.7,22.6,30.00,West,265,2.0,6.0,33,0.00,CLR,,0.00,WeatherDisplay:10.37,2013-05-22 08:10:00,
2013-05-22 01:20:00,50.7,21.9,30.00,WSW,255,2.0,5.0,32,0.00,CLR,,0.00,WeatherDisplay:10.37,2013-05-22 08:20:00,
2013-05-22 01:30:00,50.7,20.4,30.00,WSW,245,2.0,6.0,30,0.00,CLR,,0.00,WeatherDisplay:10.37,2013-05-22 08:30:00,
2013-05-22 01:35:00,50.5,19.4,30.00,WSW,244,1.0,5.0,29,0.00,CLR,,0.00,WeatherDisplay:10.37,2013-05-22 08:35:00,
2013-05-22 01:40:00,50.5,19.4,30.00,WSW,247,0.0,4.0,29,0.00,CLR,,0.00,WeatherDisplay:10.37,2013-05-22 08:40:00,
2013-05-22 01:50:00,50.4,19.3,30.00,West,270,3.0,7.0,29,0.00,CLR,,0.00,WeatherDisplay:10.37,2013-05-22 08:50:00,
2013-05-22 01:55:00,50.6,18.7,30.00,West,273,3.0,6.0,28,0.00,CLR,,0.00,WeatherDisplay:10.37,2013-05-22 08:55:00,
2013-05-22 02:00:00,50.7,18.8,29.97,WSW,256,0.0,5.0,28,0.00,CLR,,0.00,WeatherDisplay:10.37,2013-05-22 09:00:00,
2013-05-22 02:05:00,50.7,17.9,29.97,WSW,243,3.0,6.0,27,0.00,CLR,,0.00,WeatherDisplay:10.37,2013-05-22 09:05:00,
2013-05-22 02:10:00,50.7,17.9,29.97,West,267,3.0,6.0,27,0.00,CLR,,0.00,WeatherDisplay:10.37,2013-05-22 09:10:00,
2013-05-22 02:15:00,50.7,17.9,29.97,West,279,3.0,5.0,27,0.00,CLR,,0.00,WeatherDisplay:10.37,2013-05-22 09:15:00,
2013-05-22 02:20:00,50.9,18.1,29.97,West,265,2.0,6.0,27,0.00,CLR,,0.00,WeatherDisplay:10.37,2013-05-22 09:20:00,
2013-05-22 02:30:00,50.5,17.7,29.97,West,266,0.0,2.0,27,0.00,CLR,,0.00,WeatherDisplay:10.37,2013-05-22 09:30:00,
2013-05-22 02:40:00,50.5,17.7,29.97,WSW,250,2.0,7.0,27,0.00,CLR,,0.00,WeatherDisplay:10.37,2013-05-22 09:40:00,
2013-05-22 02:45:00,50.5,17.7,29.97,WSW,249,2.0,5.0,27,0.00,CLR,,0.00,WeatherDisplay:10.37,2013-05-22 09:45:00,
2013-05-22 02:50:00,50.3,17.5,29.97,WSW,240,0.0,3.0,27,0.00,CLR,,0.00,WeatherDisplay:10.37,2013-05-22 09:50:00,
2013-05-22 03:00:00,49.6,17.8,29.97,WSW,245,0.0,0.0,28,0.00,CLR,,0.00,WeatherDisplay:10.37,2013-05-22 10:00:00,
2013-05-22 03:05:00,49.3,17.5,29.97,WSW,255,0.0,4.0,28,0.00,CLR,,0.00,WeatherDisplay:10.37,2013-05-22 10:05:00,
2013-05-22 03:10:00,49.3,17.5,29.97,West,262,0.0,0.0,28,0.00,CLR,,0.00,WeatherDisplay:10.37,2013-05-22 10:10:00,
2013-05-22 03:20:00,48.9,17.2,29.97,West,273,2.0,6.0,28,0.00,CLR,,0.00,WeatherDisplay:10.37,2013-05-22 10:20:00,
2013-05-22 03:25:00,48.9,17.2,29.97,WSW,254,3.0,6.0,28,0.00,CLR,,0.00,WeatherDisplay:10.37,2013-05-22 10:25:00,
2013-05-22 03:30:00,49.3,17.5,29.94,West,260,0.0,7.0,28,0.00,CLR,,0.00,WeatherDisplay:10.37,2013-05-22 10:30:00,
2013-05-22 03:40:00,50.2,17.4,29.94,West,260,3.0,8.0,27,0.00,CLR,,0.00,WeatherDisplay:10.37,2013-05-22 10:40:00,
2013-05-22 03:50:00,51.2,18.3,29.94,West,271,3.0,6.0,27,0.00,CLR,,0.00,WeatherDisplay:10.37,2013-05-22 10:50:00,
2013-05-22 03:55:00,51.6,18.7,29.94,WSW,249,3.0,8.0,27,0.00,CLR,,0.00,WeatherDisplay:10.37,2013-05-22 10:55:00,
2013-05-22 04:00:00,51.8,18.8,29.94,WSW,257,5.0,6.0,27,0.00,CLR,,0.00,WeatherDisplay:10.37,2013-05-22 11:00:00,
2013-05-22 04:05:00,52.0,19.0,29.94,WSW,257,8.0,12.0,27,0.00,CLR,,0.00,WeatherDisplay:10.37,2013-05-22 11:05:00,
2013-05-22 04:10:00,52.3,19.3,29.94,WSW,246,7.0,15.0,27,0.00,CLR,,0.00,WeatherDisplay:10.37,2013-05-22 11:10:00,
2013-05-22 04:20:00,52.5,19.5,29.94,WSW,245,6.0,12.0,27,0.00,CLR,,0.00,WeatherDisplay:10.37,2013-05-22 11:20:00,
2013-05-22 04:30:00,52.7,19.6,29.94,WSW,256,8.0,11.0,27,0.00,CLR,,0.00,WeatherDisplay:10.37,2013-05-22 11:30:00,
2013-05-22 04:40:00,53.2,20.9,29.94,WSW,252,5.0,15.0,28,0.00,CLR,,0.00,WeatherDisplay:10.37,2013-05-22 11:40:00,
2013-05-22 04:50:00,53.6,20.4,29.94,WSW,254,6.0,13.0,27,0.00,CLR,,0.00,WeatherDisplay:10.37,2013-05-22 11:50:00,
2013-05-22 04:55:00,53.8,20.5,29.94,WSW,246,8.0,13.0,27,0.00,CLR,,0.00,WeatherDisplay:10.37,2013-05-22 11:55:00,
2013-05-22 05:05:00,53.7,21.3,29.94,WSW,247,7.0,15.0,28,0.00,CLR,,0.00,WeatherDisplay:10.37,2013-05-22 12:05:00,
2013-05-22 05:10:00,53.6,21.2,29.94,WSW,248,8.0,13.0,28,0.00,CLR,,0.00,WeatherDisplay:10.37,2013-05-22 12:10:00,
2013-05-22 05:20:00,53.1,20.8,29.94,WSW,244,6.0,12.0,28,0.00,CLR,,0.00,WeatherDisplay:10.37,2013-05-22 12:20:00,
2013-05-22 05:30:00,52.5,21.1,29.94,SW,236,6.0,12.0,29,0.00,CLR,,0.00,WeatherDisplay:10.37,2013-05-22 12:30:00,
2013-05-22 05:40:00,52.2,20.8,29.94,WSW,244,6.0,9.0,29,0.00,CLR,,0.00,WeatherDisplay:10.37,2013-05-22 12:40:00,
2013-05-22 05:50:00,52.0,20.7,29.94,WSW,243,5.0,10.0,29,0.00,CLR,,0.00,WeatherDisplay:10.37,2013-05-22 12:50:00,
2013-05-22 05:55:00,51.8,20.5,29.94,WSW,239,5.0,9.0,29,0.00,CLR,,0.00,WeatherDisplay:10.37,2013-05-22 12:55:00,
2013-05-22 06:00:00,51.6,21.2,29.94,SW,236,6.0,9.0,30,0.00,CLR,,0.00,WeatherDisplay:10.37,2013-05-22 13:00:00,
2013-05-22 06:05:00,51.6,21.1,29.94,SW,234,3.0,8.0,30,0.00,CLR,,0.00,WeatherDisplay:10.37,2013-05-22 13:05:00,
2013-05-22 06:10:00,51.4,21.0,29.94,WSW,239,5.0,7.0,30,0.00,CLR,,0.00,WeatherDisplay:10.37,2013-05-22 13:10:00,
2013-05-22 06:20:00,51.3,20.8,29.94,WSW,240,5.0,8.0,30,0.00,CLR,,0.00,WeatherDisplay:10.37,2013-05-22 13:20:00,
2013-05-22 06:30:00,52.0,21.5,29.94,SW,228,3.0,8.0,30,0.00,CLR,,0.00,WeatherDisplay:10.37,2013-05-22 13:30:00,
2013-05-22 06:35:00,52.0,21.5,29.94,SW,235,6.0,8.0,30,0.00,CLR,,0.00,WeatherDisplay:10.37,2013-05-22 13:35:00,
2013-05-22 06:40:00,52.2,21.6,29.94,WSW,250,6.0,8.0,30,0.00,CLR,,0.00,WeatherDisplay:10.37,2013-05-22 13:40:00,
2013-05-22 06:45:00,52.2,22.4,29.94,WSW,256,7.0,10.0,31,0.00,CLR,,0.00,WeatherDisplay:10.37,2013-05-22 13:45:00,
2013-05-22 06:50:00,52.6,22.7,29.94,WSW,240,6.0,10.0,31,0.00,CLR,,0.00,WeatherDisplay:10.37,2013-05-22 13:50:00,
2013-05-22 06:55:00,53.1,22.4,29.94,WSW,240,6.0,12.0,30,0.00,CLR,,0.00,WeatherDisplay:10.37,2013-05-22 13:55:00,
2013-05-22 07:00:00,53.4,22.7,29.94,WSW,248,5.0,12.0,30,0.00,CLR,,0.00,WeatherDisplay:10.37,2013-05-22 14:00:00,
2013-05-22 07:05:00,53.6,22.1,29.94,WSW,249,6.0,9.0,29,0.00,CLR,,0.00,WeatherDisplay:10.37,2013-05-22 14:05:00,
2013-05-22 07:10:00,53.8,22.2,29.94,WSW,248,6.0,8.0,29,0.00,CLR,,0.00,WeatherDisplay:10.37,2013-05-22 14:10:00,
2013-05-22 07:15:00,53.9,22.3,29.94,WSW,244,6.0,11.0,29,0.00,CLR,,0.00,WeatherDisplay:10.37,2013-05-22 14:15:00,
2013-05-22 07:20:00,54.3,21.8,29.94,WSW,251,3.0,8.0,28,0.00,CLR,,0.00,WeatherDisplay:10.37,2013-05-22 14:20:00,
2013-05-22 07:25:00,54.7,22.2,29.94,West,263,2.0,12.0,28,0.00,CLR,,0.00,WeatherDisplay:10.37,2013-05-22 14:25:00,
2013-05-22 07:30:00,55.0,22.5,29.94,West,269,5.0,8.0,28,0.00,CLR,,0.00,WeatherDisplay:10.37,2013-05-22 14:30:00,
2013-05-22 07:35:00,55.2,22.7,29.94,WSW,258,3.0,13.0,28,0.00,CLR,,0.00,WeatherDisplay:10.37,2013-05-22 14:35:00,
2013-05-22 07:40:00,55.6,22.1,29.94,WSW,241,7.0,14.0,27,0.00,CLR,,0.00,WeatherDisplay:10.37,2013-05-22 14:40:00,
2013-05-22 07:45:00,55.9,22.4,29.94,WSW,242,6.0,10.0,27,0.00,CLR,,0.00,WeatherDisplay:10.37,2013-05-22 14:45:00,
2013-05-22 07:50:00,56.3,22.7,29.94,WSW,246,5.0,11.0,27,0.00,CLR,,0.00,WeatherDisplay:10.37,2013-05-22 14:50:00,
2013-05-22 07:55:00,56.7,23.0,29.94,WSW,239,6.0,10.0,27,0.00,CLR,,0.00,WeatherDisplay:10.37,2013-05-22 14:55:00,
2013-05-22 08:05:00,57.6,22.9,29.94,WSW,252,7.0,15.0,26,0.00,CLR,,0.00,WeatherDisplay:10.37,2013-05-22 15:05:00,
2013-05-22 08:10:00,58.5,22.8,29.94,WSW,249,5.0,10.0,25,0.00,CLR,,0.00,WeatherDisplay:10.37,2013-05-22 15:10:00,
2013-05-22 08:20:00,59.4,23.5,29.94,WSW,237,5.0,10.0,25,0.00,CLR,,0.00,WeatherDisplay:10.37,2013-05-22 15:20:00,
2013-05-22 08:30:00,60.6,23.6,29.94,WSW,239,7.0,10.0,24,0.00,CLR,,0.00,WeatherDisplay:10.37,2013-05-22 15:30:00,
2013-05-22 08:40:00,61.5,24.3,29.94,WSW,237,6.0,12.0,24,0.00,CLR,,0.00,WeatherDisplay:10.37,2013-05-22 15:40:00,
2013-05-22 08:45:00,61.7,21.3,29.94,SW,236,8.0,13.0,21,0.00,CLR,,0.00,WeatherDisplay:10.37,2013-05-22 15:45:00,
2013-05-22 08:50:00,61.9,23.6,29.94,WSW,249,3.0,13.0,23,0.00,CLR,,0.00,WeatherDisplay:10.37,2013-05-22 15:50:00,
2013-05-22 08:55:00,62.4,21.9,29.94,WSW,248,5.0,10.0,21,0.00,CLR,,0.00,WeatherDisplay:10.37,2013-05-22 15:55:00,
2013-05-22 09:00:00,63.0,22.4,29.94,WSW,257,7.0,9.0,21,0.00,CLR,,0.00,WeatherDisplay:10.37,2013-05-22 16:00:00,
2013-05-22 09:05:00,63.4,23.9,29.94,WSW,251,7.0,9.0,22,0.00,CLR,,0.00,WeatherDisplay:10.37,2013-05-22 16:05:00,
2013-05-22 09:10:00,63.5,25.0,29.94,SW,223,6.0,10.0,23,0.00,CLR,,0.00,WeatherDisplay:10.37,2013-05-22 16:10:00,
2013-05-22 09:15:00,63.8,25.3,29.94,SW,228,6.0,12.0,23,0.00,CLR,,0.00,WeatherDisplay:10.37,2013-05-22 16:15:00,
2013-05-22 09:20:00,64.0,23.3,29.94,SW,230,6.0,12.0,21,0.00,CLR,,0.00,WeatherDisplay:10.37,2013-05-22 16:20:00,
2013-05-22 09:30:00,64.3,23.5,29.94,SW,228,6.0,12.0,21,0.00,CLR,,0.00,WeatherDisplay:10.37,2013-05-22 16:30:00,
2013-05-22 09:40:00,65.1,20.5,29.94,WSW,237,6.0,11.0,18,0.00,CLR,,0.00,WeatherDisplay:10.37,2013-05-22 16:40:00,
2013-05-22 09:50:00,65.8,21.0,29.97,WSW,240,7.0,12.0,18,0.00,CLR,,0.00,WeatherDisplay:10.37,2013-05-22 16:50:00,
2013-05-22 10:00:00,66.6,24.2,29.97,SW,234,5.0,8.0,20,0.00,CLR,,0.00,WeatherDisplay:10.37,2013-05-22 17:00:00,
2013-05-22 10:05:00,67.3,24.8,29.97,SW,216,3.0,6.0,20,0.00,CLR,,0.00,WeatherDisplay:10.37,2013-05-22 17:05:00,
2013-05-22 10:10:00,67.5,21.1,29.97,South,191,3.0,6.0,17,0.00,CLR,,0.00,WeatherDisplay:10.37,2013-05-22 17:10:00,
2013-05-22 10:20:00,67.2,20.9,29.97,SW,218,7.0,13.0,17,0.00,CLR,,0.00,WeatherDisplay:10.37,2013-05-22 17:20:00,
2013-05-22 10:25:00,66.9,20.6,29.97,SW,215,5.0,13.0,17,0.00,CLR,,0.00,WeatherDisplay:10.37,2013-05-22 17:25:00,
2013-05-22 10:30:00,66.9,20.6,29.97,SSW,211,6.0,10.0,17,0.00,CLR,,0.00,WeatherDisplay:10.37,2013-05-22 17:30:00,
2013-05-22 10:40:00,67.0,20.7,29.97,SW,224,6.0,11.0,17,0.00,CLR,,0.00,WeatherDisplay:10.37,2013-05-22 17:40:00,
2013-05-22 10:50:00,67.3,20.9,29.97,SSW,207,5.0,12.0,17,0.00,CLR,,0.00,WeatherDisplay:10.37,2013-05-22 17:50:00,
2013-05-22 11:00:00,67.1,20.8,29.97,SW,227,6.0,12.0,17,0.00,CLR,,0.00,WeatherDisplay:10.37,2013-05-22 18:00:00,
2013-05-22 11:05:00,67.1,20.8,29.97,SW,231,9.0,13.0,17,0.00,CLR,,0.00,WeatherDisplay:10.37,2013-05-22 18:05:00,
2013-05-22 11:10:00,67.0,20.7,29.97,SW,223,8.0,13.0,17,0.00,CLR,,0.00,WeatherDisplay:10.37,2013-05-22 18:10:00,
2013-05-22 11:20:00,66.9,20.6,29.97,SW,229,7.0,12.0,17,0.00,CLR,,0.00,WeatherDisplay:10.37,2013-05-22 18:20:00,
2013-05-22 11:30:00,67.5,21.1,29.97,SW,232,5.0,14.0,17,0.00,CLR,,0.00,WeatherDisplay:10.37,2013-05-22 18:30:00,
2013-05-22 11:40:00,67.8,21.4,29.97,SW,218,5.0,10.0,17,0.00,CLR,,0.00,WeatherDisplay:10.37,2013-05-22 18:40:00,
2013-05-22 11:45:00,67.8,21.4,29.97,SSW,208,3.0,10.0,17,0.00,CLR,,0.00,WeatherDisplay:10.37,2013-05-22 18:45:00,
2013-05-22 11:50:00,67.8,21.4,29.97,SSW,210,3.0,9.0,17,0.00,CLR,,0.00,WeatherDisplay:10.37,2013-05-22 18:50:00,
2013-05-22 11:55:00,68.2,21.7,29.97,SW,215,6.0,9.0,17,0.00,CLR,,0.00,WeatherDisplay:10.37,2013-05-22 18:55:00,
2013-05-22 12:00:00,68.2,21.7,29.97,SW,228,6.0,11.0,17,0.00,CLR,,0.00,WeatherDisplay:10.37,2013-05-22 19:00:00,
2013-05-22 12:10:00,68.4,21.8,29.97,SSW,211,3.0,9.0,17,0.00,CLR,,0.00,WeatherDisplay:10.37,2013-05-22 19:10:00,
2013-05-22 12:15:00,68.5,22.0,29.97,SW,224,5.0,6.0,17,0.00,CLR,,0.00,WeatherDisplay:10.37,2013-05-22 19:15:00,
2013-05-22 12:20:00,68.5,22.0,29.97,SW,227,2.0,11.0,17,0.00,CLR,,0.00,WeatherDisplay:10.37,2013-05-22 19:20:00,
2013-05-22 12:30:00,68.5,22.0,29.97,SW,232,5.0,8.0,17,0.00,CLR,,0.00,WeatherDisplay:10.37,2013-05-22 19:30:00,
2013-05-22 12:40:00,68.4,21.8,29.97,SSW,205,3.0,10.0,17,0.00,CLR,,0.00,WeatherDisplay:10.37,2013-05-22 19:40:00,
2013-05-22 12:50:00,68.3,21.8,29.97,SW,228,3.0,8.0,17,0.00,CLR,,0.00,WeatherDisplay:10.37,2013-05-22 19:50:00,
2013-05-22 13:00:00,68.3,21.8,29.97,SW,229,3.0,10.0,17,0.00,CLR,,0.00,WeatherDisplay:10.37,2013-05-22 20:00:00,
2013-05-22 13:05:00,68.3,21.8,29.97,WSW,240,2.0,10.0,17,0.00,CLR,,0.00,WeatherDisplay:10.37,2013-05-22 20:05:00,
2013-05-22 13:10:00,68.4,21.8,29.97,SW,234,3.0,8.0,17,0.00,CLR,,0.00,WeatherDisplay:10.37,2013-05-22 20:10:00,
2013-05-22 13:20:00,68.4,21.8,29.97,WSW,237,8.0,10.0,17,0.00,CLR,,0.00,WeatherDisplay:10.37,2013-05-22 20:20:00,
2013-05-22 13:30:00,68.1,21.6,29.97,WSW,249,6.0,15.0,17,0.00,CLR,,0.00,WeatherDisplay:10.37,2013-05-22 20:30:00,
2013-05-22 13:40:00,67.3,22.3,29.97,WSW,255,7.0,10.0,18,0.00,CLR,,0.00,WeatherDisplay:10.37,2013-05-22 20:40:00,
2013-05-22 13:50:00,66.6,24.2,29.97,West,260,5.0,13.0,20,0.00,CLR,,0.00,WeatherDisplay:10.37,2013-05-22 20:50:00,
2013-05-22 14:00:00,66.7,24.4,29.94,WSW,256,9.0,13.0,20,0.00,CLR,,0.00,WeatherDisplay:10.37,2013-05-22 21:00:00,
2013-05-22 14:05:00,66.6,24.2,29.94,WSW,249,5.0,11.0,20,0.00,CLR,,0.00,WeatherDisplay:10.37,2013-05-22 21:05:00,
2013-05-22 14:10:00,66.6,24.3,29.94,WSW,242,5.0,13.0,20,0.00,CLR,,0.00,WeatherDisplay:10.37,2013-05-22 21:10:00,
2013-05-22 14:15:00,66.9,26.8,29.94,SW,228,6.0,13.0,22,0.00,CLR,,0.00,WeatherDisplay:10.37,2013-05-22 21:15:00,
2013-05-22 14:20:00,66.9,24.5,29.94,SW,222,5.0,15.0,20,0.00,CLR,,0.00,WeatherDisplay:10.37,2013-05-22 21:20:00,
2013-05-22 14:25:00,66.6,24.2,29.94,WSW,239,6.0,13.0,20,0.00,CLR,,0.00,WeatherDisplay:10.37,2013-05-22 21:25:00,
2013-05-22 14:30:00,66.7,24.3,29.94,WSW,249,6.0,15.0,20,0.00,CLR,,0.00,WeatherDisplay:10.37,2013-05-22 21:30:00,
2013-05-22 14:35:00,66.6,26.5,29.94,WSW,247,6.0,13.0,22,0.00,CLR,,0.00,WeatherDisplay:10.37,2013-05-22 21:35:00,
2013-05-22 14:40:00,66.4,26.3,29.94,SW,233,6.0,13.0,22,0.00,CLR,,0.00,WeatherDisplay:10.37,2013-05-22 21:40:00,
2013-05-22 14:50:00,66.4,26.3,29.94,WSW,242,7.0,13.0,22,0.00,CLR,,0.00,WeatherDisplay:10.37,2013-05-22 21:50:00,
2013-05-22 15:00:00,66.2,27.3,29.94,SW,232,7.0,14.0,23,0.00,CLR,,0.00,WeatherDisplay:10.37,2013-05-22 22:00:00,
2013-05-22 15:05:00,65.7,26.8,29.94,SW,236,5.0,15.0,23,0.00,CLR,,0.00,WeatherDisplay:10.37,2013-05-22 22:05:00,
2013-05-22 15:10:00,65.7,26.9,29.94,WSW,238,6.0,13.0,23,0.00,CLR,,0.00,WeatherDisplay:10.37,2013-05-22 22:10:00,
2013-05-22 15:20:00,65.7,26.9,29.94,SW,233,6.0,12.0,23,0.00,CLR,,0.00,WeatherDisplay:10.37,2013-05-22 22:20:00,
2013-05-22 15:30:00,65.1,26.4,29.94,WSW,241,10.0,13.0,23,0.00,CLR,,0.00,WeatherDisplay:10.37,2013-05-22 22:30:00,
2013-05-22 15:40:00,64.5,25.8,29.94,SW,228,9.0,14.0,23,0.00,CLR,,0.00,WeatherDisplay:10.37,2013-05-22 22:40:00,
2013-05-22 15:50:00,63.2,24.7,29.91,SW,231,8.0,17.0,23,0.00,CLR,,0.00,WeatherDisplay:10.37,2013-05-22 22:50:00,
2013-05-22 16:00:00,63.1,25.7,29.94,SW,233,6.0,13.0,24,0.00,CLR,,0.00,WeatherDisplay:10.37,2013-05-22 23:00:00,
2013-05-22 16:05:00,62.8,25.4,29.94,WSW,240,6.0,13.0,24,0.00,CLR,,0.00,WeatherDisplay:10.37,2013-05-22 23:05:00,
2013-05-22 16:10:00,62.4,25.1,29.94,WSW,241,8.0,15.0,24,0.00,CLR,,0.00,WeatherDisplay:10.37,2013-05-22 23:10:00,
2013-05-22 16:15:00,62.2,25.9,29.94,SW,225,3.0,12.0,25,0.00,CLR,,0.00,WeatherDisplay:10.37,2013-05-22 23:15:00,
2013-05-22 16:20:00,62.2,25.9,29.94,SSW,212,9.0,15.0,25,0.00,CLR,,0.00,WeatherDisplay:10.37,2013-05-22 23:20:00,
2013-05-22 16:30:00,62.1,25.8,29.91,SW,226,7.0,15.0,25,0.00,CLR,,0.00,WeatherDisplay:10.37,2013-05-22 23:30:00,
2013-05-22 16:40:00,62.2,25.9,29.91,SSW,209,5.0,9.0,25,0.00,CLR,,0.00,WeatherDisplay:10.37,2013-05-22 23:40:00,
2013-05-22 16:50:00,61.7,26.4,29.91,SW,224,5.0,13.0,26,0.00,CLR,,0.00,WeatherDisplay:10.37,2013-05-22 23:50:00,
2013-05-22 17:00:00,61.0,27.6,29.91,SW,223,6.0,13.0,28,0.00,CLR,,0.00,WeatherDisplay:10.37,2013-05-23 00:00:00,
2013-05-22 17:05:00,61.0,28.5,29.91,SW,228,7.0,18.0,29,0.00,CLR,,0.00,WeatherDisplay:10.37,2013-05-23 00:05:00,
2013-05-22 17:10:00,60.6,32.1,29.91,SW,226,5.0,12.0,34,0.00,CLR,,0.00,WeatherDisplay:10.37,2013-05-23 00:10:00,
2013-05-22 17:20:00,60.0,28.4,29.91,SW,215,8.0,13.0,30,0.00,CLR,,0.00,WeatherDisplay:10.37,2013-05-23 00:20:00,
2013-05-22 17:30:00,59.2,30.8,29.91,SSW,213,6.0,10.0,34,0.00,CLR,,0.00,WeatherDisplay:10.37,2013-05-23 00:30:00,
2013-05-22 17:40:00,58.7,31.8,29.91,SW,227,8.0,15.0,36,0.00,CLR,,0.00,WeatherDisplay:10.37,2013-05-23 00:40:00,
2013-05-22 17:50:00,58.3,34.0,29.91,SW,229,7.0,10.0,40,0.00,CLR,,0.00,WeatherDisplay:10.37,2013-05-23 00:50:00,
2013-05-22 18:00:00,57.7,35.4,29.91,SW,228,8.0,13.0,43,0.00,CLR,,0.00,WeatherDisplay:10.37,2013-05-23 01:00:00,
2013-05-22 18:05:00,57.2,34.9,29.91,SW,232,5.0,13.0,43,0.00,CLR,,0.00,WeatherDisplay:10.37,2013-05-23 01:05:00,
2013-05-22 18:10:00,56.9,33.4,29.91,SW,226,6.0,11.0,41,0.00,CLR,,0.00,WeatherDisplay:10.37,2013-05-23 01:10:00,
2013-05-22 18:15:00,56.5,33.7,29.91,SW,214,5.0,13.0,42,0.00,CLR,,0.00,WeatherDisplay:10.37,2013-05-23 01:15:00,
2013-05-22 18:20:00,56.3,33.5,29.91,SSW,211,7.0,10.0,42,0.00,CLR,,0.00,WeatherDisplay:10.37,2013-05-23 01:20:00,
2013-05-22 18:30:00,55.6,31.7,29.91,SW,223,5.0,13.0,40,0.00,CLR,,0.00,WeatherDisplay:10.37,2013-05-23 01:30:00,
2013-05-22 18:40:00,55.0,34.0,29.91,SSW,213,6.0,8.0,45,0.00,CLR,,0.00,WeatherDisplay:10.37,2013-05-23 01:40:00,
2013-05-22 18:50:00,54.3,32.8,29.91,SW,231,6.0,13.0,44,0.00,CLR,,0.00,WeatherDisplay:10.37,2013-05-23 01:50:00,
2013-05-22 19:00:00,53.7,31.7,29.91,SW,216,6.0,11.0,43,0.00,CLR,,0.00,WeatherDisplay:10.37,2013-05-23 02:00:00,
2013-05-22 19:05:00,53.2,29.5,29.91,SW,222,6.0,15.0,40,0.00,CLR,,0.00,WeatherDisplay:10.37,2013-05-23 02:05:00,
2013-05-22 19:10:00,52.9,28.6,29.91,SW,224,5.0,15.0,39,0.00,CLR,,0.00,WeatherDisplay:10.37,2013-05-23 02:10:00,
2013-05-22 19:20:00,52.3,27.5,29.91,SW,228,7.0,13.0,38,0.00,CLR,,0.00,WeatherDisplay:10.37,2013-05-23 02:20:00,
2013-05-22 19:30:00,51.6,28.1,29.91,WSW,238,6.0,12.0,40,0.00,CLR,,0.00,WeatherDisplay:10.37,2013-05-23 02:30:00,
2013-05-22 19:40:00,51.1,28.2,29.91,WSW,239,6.0,10.0,41,0.00,CLR,,0.00,WeatherDisplay:10.37,2013-05-23 02:40:00,
2013-05-22 19:45:00,50.7,27.8,29.91,WSW,244,5.0,12.0,41,0.00,CLR,,0.00,WeatherDisplay:10.37,2013-05-23 02:45:00,
2013-05-22 19:50:00,50.5,27.7,29.91,WSW,255,3.0,13.0,41,0.00,CLR,,0.00,WeatherDisplay:10.37,2013-05-23 02:50:00,
2013-05-22 20:00:00,50.1,27.3,29.91,WSW,237,2.0,9.0,41,0.00,CLR,,0.00,WeatherDisplay:10.37,2013-05-23 03:00:00,
2013-05-22 20:05:00,49.9,26.5,29.91,WSW,244,3.0,7.0,40,0.00,CLR,,0.00,WeatherDisplay:10.37,2013-05-23 03:05:00,
2013-05-22 20:10:00,49.6,26.9,29.91,WSW,238,5.0,8.0,41,0.00,CLR,,0.00,WeatherDisplay:10.37,2013-05-23 03:10:00,
2013-05-22 20:20:00,49.5,26.1,29.91,WSW,245,3.0,6.0,40,0.00,CLR,,0.00,WeatherDisplay:10.37,2013-05-23 03:20:00,
2013-05-22 20:25:00,49.2,28.2,29.91,WSW,240,8.0,10.0,44,0.00,CLR,,0.00,WeatherDisplay:10.37,2013-05-23 03:25:00,
2013-05-22 20:30:00,49.1,27.0,29.91,SW,225,3.0,9.0,42,0.00,CLR,,0.00,WeatherDisplay:10.37,2013-05-23 03:30:00,
2013-05-22 20:40:00,48.7,25.5,29.91,WSW,240,2.0,6.0,40,0.00,CLR,,0.00,WeatherDisplay:10.37,2013-05-23 03:40:00,
2013-05-22 20:50:00,48.6,24.7,29.91,West,268,3.0,6.0,39,0.00,CLR,,0.00,WeatherDisplay:10.37,2013-05-23 03:50:00,
2013-05-22 21:00:00,48.6,24.7,29.91,WSW,255,2.0,8.0,39,0.00,CLR,,0.00,WeatherDisplay:10.37,2013-05-23 04:00:00,
2013-05-22 21:05:00,48.4,25.1,29.91,SW,230,2.0,8.0,40,0.00,CLR,,0.00,WeatherDisplay:10.37,2013-05-23 04:05:00,
2013-05-22 21:10:00,48.2,24.4,29.91,WSW,239,0.0,4.0,39,0.00,CLR,,0.00,WeatherDisplay:10.37,2013-05-23 04:10:00,
2013-05-22 21:20:00,48.2,23.1,29.91,WSW,255,6.0,9.0,37,0.00,CLR,,0.00,WeatherDisplay:10.37,2013-05-23 04:20:00,
2013-05-22 21:30:00,48.2,19.7,29.91,WSW,246,6.0,10.0,32,0.00,CLR,,0.00,WeatherDisplay:10.37,2013-05-23 04:30:00,
2013-05-22 21:40:00,48.2,17.4,29.91,WSW,244,7.0,9.0,29,0.00,CLR,,0.00,WeatherDisplay:10.37,2013-05-23 04:40:00,
2013-05-22 21:45:00,48.2,16.6,29.91,WSW,242,5.0,9.0,28,0.00,CLR,,0.00,WeatherDisplay:10.37,2013-05-23 04:45:00,
2013-05-22 21:50:00,48.1,16.5,29.91,WSW,245,6.0,12.0,28,0.00,CLR,,0.00,WeatherDisplay:10.37,2013-05-23 04:50:00,
2013-05-22 21:55:00,48.0,16.4,29.91,WSW,251,6.0,13.0,28,0.00,CLR,,0.00,WeatherDisplay:10.37,2013-05-23 04:55:00,
2013-05-22 22:00:00,48.0,16.4,29.91,WSW,247,5.0,13.0,28,0.00,CLR,,0.00,WeatherDisplay:10.37,2013-05-23 05:00:00,
2013-05-22 22:05:00,47.8,16.3,29.91,WSW,244,7.0,11.0,28,0.00,CLR,,0.00,WeatherDisplay:10.37,2013-05-23 05:05:00,
2013-05-22 22:10:00,47.8,16.3,29.91,WSW,242,9.0,15.0,28,0.00,CLR,,0.00,WeatherDisplay:10.37,2013-05-23 05:10:00,
2013-05-22 22:20:00,47.8,15.4,29.91,WSW,254,8.0,15.0,27,0.00,CLR,,0.00,WeatherDisplay:10.37,2013-05-23 05:20:00,
2013-05-22 22:30:00,47.7,15.3,29.91,WSW,246,5.0,13.0,27,0.00,CLR,,0.00,WeatherDisplay:10.37,2013-05-23 05:30:00,
2013-05-22 22:40:00,47.7,15.3,29.91,West,261,6.0,14.0,27,0.00,CLR,,0.00,WeatherDisplay:10.37,2013-05-23 05:40:00,
2013-05-22 22:50:00,47.5,13.4,29.91,WSW,240,7.0,13.0,25,0.00,CLR,,0.00,WeatherDisplay:10.37,2013-05-23 05:50:00,
2013-05-22 23:00:00,47.5,12.4,29.91,WSW,251,6.0,13.0,24,0.00,CLR,,0.00,WeatherDisplay:10.37,2013-05-23 06:00:00,
2013-05-22 23:05:00,47.5,12.4,29.91,WSW,251,8.0,14.0,24,0.00,CLR,,0.00,WeatherDisplay:10.37,2013-05-23 06:05:00,
2013-05-22 23:10:00,47.3,12.3,29.91,WSW,240,9.0,13.0,24,0.00,CLR,,0.00,WeatherDisplay:10.37,2013-05-23 06:10:00,
2013-05-22 23:15:00,47.3,12.3,29.91,SW,235,8.0,17.0,24,0.00,CLR,,0.00,WeatherDisplay:10.37,2013-05-23 06:15:00,
2013-05-22 23:20:00,47.1,12.1,29.91,SW,236,9.0,17.0,24,0.00,CLR,,0.00,WeatherDisplay:10.37,2013-05-23 06:20:00,
2013-05-22 23:30:00,47.1,10.2,29.91,SW,232,6.0,17.0,22,0.00,CLR,,0.00,WeatherDisplay:10.37,2013-05-23 06:30:00,
2013-05-22 23:40:00,47.1,10.2,29.91,SW,223,6.0,13.0,22,0.00,CLR,,0.00,WeatherDisplay:10.37,2013-05-23 06:40:00,
2013-05-22 23:50:00,47.1,10.2,29.88,SW,236,7.0,12.0,22,0.00,CLR,,0.00,WeatherDisplay:10.37,2013-05-23 06:50:00,